Location: Bottenau
(48.5138°N, 8.0462°E)
Time: 05:30:36
(UTC+00:00)

Cosmos 841 Rocket - Pass Details

Date: 18 April 2021
Orbit: 747 x 772 km, 74.0° (Epoch: 09 May)

Event Time Altitude Azimuth Distance (km) Brightness Sun altitude
Rises 21:43:56 0° 339° (NNW) 3,242 8.1 -26.1°
Reaches altitude 10° 21:46:24 10° 345° (NNW) 2,308 6.9 -26.3°
Enters shadow 21:51:30 53° 61° (ENE) 929 3.8 -26.7°
